When you browse on this site, cookies collect data to enhance your experience and personalize the content and advertising you see.
Visit our Privacy Policy to learn more. By continuing to use the site, you agree to this use of cookies and data.
  • In Czech Republic
  • List of Countries
  • For 7 days
  • Water Temperature
  • Satellite Maps
  • Weather Map
  • Weather Widgets
  • user-avatar
    Login

    Hourly Weather Mishawaka

    Today, 22 February, Friday

    Time Temperature Precipitation Wind Pressure Humidity
    00:00 -1°C° 0 mm 1 mps 750 mmHg 81%
    01:00 -1°C° 0 mm 1 mps 750 mmHg 81%
    02:00 -1°C° 0 mm 1 mps 751 mmHg 82%
    03:00 -1°C° 0 mm 1 mps 751 mmHg 83%
    04:00 -2°C° 0 mm 1 mps 751 mmHg 84%
    05:00 -2°C° 0 mm 1 mps 752 mmHg 85%
    06:00 -2°C° 0 mm 1 mps 752 mmHg 86%
    07:00 -1°C° 0 mm 1 mps 752 mmHg 82%
    08:00 -3°C° 0 mm 2 mps 752 mmHg 77%
    09:00 -2°C° 0 mm 2 mps 753 mmHg 73%
    10:00 -1°C° 0 mm 2 mps 753 mmHg 67%
    11:00 +1°C° 0 mm 2 mps 753 mmHg 61%
    12:00 +3°C° 0 mm 2 mps 753 mmHg 55%
    13:00 +3°C° 0 mm 2 mps 752 mmHg 55%
    14:00 +4°C° 0 mm 2 mps 752 mmHg 54%
    15:00 +4°C° 0 mm 2 mps 751 mmHg 54%
    16:00 +3°C° 0 mm 2 mps 751 mmHg 61%
    17:00 +2°C° 0 mm 2 mps 751 mmHg 67%
    18:00 0°C° 0 mm 3 mps 751 mmHg 74%
    19:00 -1°C° 0 mm 3 mps 751 mmHg 75%
    20:00 -1°C° 0 mm 3 mps 750 mmHg 76%
    21:00 -1°C° 0 mm 3 mps 750 mmHg 77%
    22:00 -2°C° 0 mm 4 mps 750 mmHg 76%
    23:00 -1°C° 0 mm 4 mps 749 mmHg 76%

    Tomorrow, 23 February, Saturday

    Time Temperature Precipitation Wind Pressure Humidity
    00:00 -1°C° 0 mm 4 mps 749 mmHg 75%
    01:00 -1°C° 0 mm 4 mps 748 mmHg 76%
    02:00 -2°C° 0 mm 5 mps 747 mmHg 78%
    03:00 -2°C° 0 mm 5 mps 747 mmHg 80%
    04:00 -2°C° 0 mm 5 mps 746 mmHg 79%
    05:00 -2°C° 0 mm 5 mps 745 mmHg 79%
    06:00 -3°C° 0 mm 6 mps 744 mmHg 79%
    07:00 -2°C° 0 mm 6 mps 744 mmHg 78%
    08:00 -1°C° 0 mm 7 mps 743 mmHg 78%
    09:00 -1°C° 0 mm 7 mps 743 mmHg 77%
    10:00 +2°C° 0.1 mm 6 mps 742 mmHg 79%
    11:00 +3°C° 0.1 mm 6 mps 741 mmHg 81%
    12:00 +5°C° 0.1 mm 5 mps 740 mmHg 82%
    13:00 +4°C° 0.3 mm 4 mps 739 mmHg 87%
    14:00 +4°C° 0.3 mm 4 mps 737 mmHg 91%
    15:00 +3°C° 0.3 mm 3 mps 736 mmHg 96%
    16:00 +4°C° 0.1 mm 4 mps 735 mmHg 96%
    17:00 +5°C° 0.1 mm 4 mps 733 mmHg 97%
    18:00 +6°C° 0.1 mm 5 mps 732 mmHg 97%
    19:00 +6°C° 0.6 mm 7 mps 730 mmHg 96%
    20:00 +9°C° 0.6 mm 8 mps 728 mmHg 94%
    21:00 +11°C° 0.6 mm 9 mps 726 mmHg 92%
    22:00 +10°C° 0.5 mm 7 mps 726 mmHg 87%
    23:00 +9°C° 0.5 mm 6 mps 725 mmHg 81%

    Day after tomorrow, 24 February, Sunday

    Time Temperature Precipitation Wind Pressure Humidity
    00:00 +7°C° 0.5 mm 4 mps 724 mmHg 76%
    01:00 +7°C° 0 mm 6 mps 723 mmHg 74%
    02:00 +6°C° 0 mm 7 mps 723 mmHg 72%
    03:00 +6°C° 0 mm 9 mps 722 mmHg 70%
    04:00 +5°C° 0.1 mm 10 mps 722 mmHg 74%
    05:00 +3°C° 0.1 mm 11 mps 722 mmHg 78%
    06:00 +2°C° 0.1 mm 12 mps 722 mmHg 81%
    07:00 0°C° 0.1 mm 12 mps 724 mmHg 78%
    08:00 0°C° 0.1 mm 12 mps 726 mmHg 75%
    09:00 -1°C° 0.1 mm 13 mps 727 mmHg 72%
    10:00 -1°C° 0.1 mm 13 mps 729 mmHg 70%
    11:00 -2°C° 0.1 mm 13 mps 731 mmHg 69%
    12:00 -2°C° 0.1 mm 13 mps 733 mmHg 67%
    13:00 -2°C° 0 mm 13 mps 733 mmHg 65%
    14:00 -4°C° 0 mm 13 mps 734 mmHg 63%
    15:00 -4°C° 0 mm 13 mps 735 mmHg 60%
    16:00 -6°C° 0 mm 13 mps 736 mmHg 63%
    17:00 -7°C° 0 mm 12 mps 737 mmHg 65%
    18:00 -8°C° 0 mm 12 mps 738 mmHg 67%
    19:00 -8°C° 0.1 mm 12 mps 739 mmHg 67%
    20:00 -8°C° 0.1 mm 11 mps 740 mmHg 66%
    21:00 -8°C° 0.1 mm 11 mps 741 mmHg 66%
    22:00 -9°C° 0 mm 11 mps 742 mmHg 66%
    23:00 -9°C° 0 mm 10 mps 743 mmHg 65%

    25 February, Monday

    Time Temperature Precipitation Wind Pressure Humidity
    00:00 -10°C° 0 mm 10 mps 744 mmHg 65%
    01:00 -11°C° 0 mm 9 mps 745 mmHg 66%
    02:00 -11°C° 0 mm 9 mps 746 mmHg 66%
    03:00 -12°C° 0 mm 8 mps 747 mmHg 67%
    04:00 -13°C° 0 mm 8 mps 748 mmHg 67%
    05:00 -13°C° 0 mm 7 mps 749 mmHg 68%
    06:00 -14°C° 0 mm 7 mps 749 mmHg 68%
    07:00 -13°C° 0 mm 7 mps 750 mmHg 65%
    08:00 -12°C° 0 mm 6 mps 751 mmHg 62%
    09:00 -12°C° 0 mm 6 mps 752 mmHg 59%
    10:00 -11°C° 0 mm 6 mps 752 mmHg 56%
    11:00 -11°C° 0 mm 6 mps 752 mmHg 53%
    12:00 -10°C° 0 mm 5 mps 752 mmHg 51%
    13:00 -10°C° 0 mm 5 mps 752 mmHg 50%
    14:00 -9°C° 0 mm 4 mps 752 mmHg 49%
    15:00 -9°C° 0 mm 4 mps 752 mmHg 49%
    16:00 -9°C° 0 mm 4 mps 752 mmHg 51%
    17:00 -9°C° 0 mm 3 mps 752 mmHg 53%
    18:00 -8°C° 0 mm 2 mps 752 mmHg 56%
    19:00 -8°C° 0 mm 2 mps 752 mmHg 57%
    20:00 -8°C° 0 mm 2 mps 752 mmHg 59%
    21:00 -8°C° 0 mm 2 mps 753 mmHg 60%
    22:00 -8°C° 0 mm 2 mps 753 mmHg 62%
    23:00 -8°C° 0 mm 2 mps 752 mmHg 64%

    26 February, Tuesday

    Time Temperature Precipitation Wind Pressure Humidity
    00:00 -8°C° 0 mm 2 mps 752 mmHg 66%
    01:00 -8°C° 0 mm 2 mps 752 mmHg 68%
    02:00 -7°C° 0 mm 1 mps 752 mmHg 69%
    03:00 -7°C° 0 mm 1 mps 752 mmHg 71%
    04:00 -7°C° 0 mm 1 mps 752 mmHg 72%
    05:00 -8°C° 0 mm 2 mps 752 mmHg 73%
    06:00 -8°C° 0 mm 2 mps 752 mmHg 73%
    07:00 -8°C° 0.1 mm 3 mps 752 mmHg 74%
    08:00 -8°C° 0.1 mm 3 mps 752 mmHg 74%
    09:00 -8°C° 0.1 mm 4 mps 752 mmHg 75%
    10:00 -7°C° 0.1 mm 4 mps 752 mmHg 74%
    11:00 -7°C° 0.1 mm 4 mps 751 mmHg 73%
    12:00 -5°C° 0.1 mm 4 mps 750 mmHg 71%
    13:00 -5°C° 0 mm 5 mps 749 mmHg 68%
    14:00 -2°C° 0 mm 5 mps 748 mmHg 65%
    15:00 -2°C° 0 mm 6 mps 747 mmHg 61%
    16:00 -1°C° 0 mm 5 mps 746 mmHg 62%
    17:00 -1°C° 0 mm 5 mps 746 mmHg 63%
    18:00 -1°C° 0 mm 4 mps 745 mmHg 64%
    19:00 -1°C° 0 mm 4 mps 745 mmHg 67%
    20:00 -1°C° 0 mm 4 mps 745 mmHg 70%
    21:00 -1°C° 0 mm 4 mps 744 mmHg 73%
    22:00 -1°C° 0.1 mm 4 mps 743 mmHg 79%
    23:00 0°C° 0.1 mm 4 mps 743 mmHg 85%

    27 February, Wednesday

    Time Temperature Precipitation Wind Pressure Humidity
    00:00 +2°C° 0.1 mm 3 mps 742 mmHg 91%
    01:00 +2°C° 0 mm 3 mps 741 mmHg 92%
    02:00 +1°C° 0 mm 4 mps 741 mmHg 93%
    03:00 +1°C° 0 mm 4 mps 741 mmHg 94%
    04:00 0°C° 0 mm 4 mps 741 mmHg 93%
    05:00 -1°C° 0 mm 4 mps 741 mmHg 92%
    06:00 -2°C° 0 mm 5 mps 741 mmHg 91%
    07:00 -2°C° 0 mm 5 mps 742 mmHg 89%
    08:00 -3°C° 0 mm 6 mps 743 mmHg 86%
    09:00 -3°C° 0 mm 7 mps 744 mmHg 83%
    10:00 -4°C° 0 mm 7 mps 745 mmHg 79%
    11:00 -5°C° 0 mm 8 mps 745 mmHg 75%
    12:00 -6°C° 0 mm 8 mps 746 mmHg 71%
    13:00 -6°C° 0 mm 8 mps 746 mmHg 69%
    14:00 -7°C° 0 mm 7 mps 747 mmHg 68%
    15:00 -8°C° 0 mm 7 mps 747 mmHg 66%
    16:00 -8°C° 0 mm 7 mps 748 mmHg 67%
    17:00 -9°C° 0 mm 6 mps 748 mmHg 69%
    18:00 -9°C° 0 mm 6 mps 749 mmHg 70%
    19:00 -8°C° 0 mm 5 mps 749 mmHg 69%
    20:00 -8°C° 0 mm 4 mps 750 mmHg 68%
    21:00 -8°C° 0 mm 4 mps 750 mmHg 67%
    22:00 -7°C° 0 mm 3 mps 750 mmHg 66%
    23:00 -7°C° 0 mm 3 mps 750 mmHg 66%
    Show more